This demonstration page uses our WeatherBlox Daily Observations layout. Learn more.

Left ArrowRight Arrow

Hourly Observations for January 19, 2018

Temp ( °F °C ) Dew Point ( °F °C ) Humidity (%) Winds ( mph kmh ) Pressure ( in mb ) Visibility ( mi km ) Precip ( " mm )
12:15 am 00:15 Clear 21 -6 14 -10 74 74 SSW 10 17 30.21 1023 10 16 N/A
12:35 am 00:35 Clear 21 -6 14 -10 74 74 SSW 8 13 30.24 1024 10 16 N/A
12:55 am 00:55 Clear 21 -6 14 -10 74 74 SSW 9 15 30.21 1023 10 16 N/A
1:15 am 01:15 Clear 21 -6 14 -10 74 74 SSW 8 13 30.21 1023 10 16 N/A
1:35 am 01:35 Clear 21 -6 14 -10 74 74 SSW 9 15 30.21 1023 10 16 N/A
1:55 am 01:55 Clear 21 -6 14 -10 74 74 SSW 8 13 30.21 1023 10 16 N/A
2:15 am 02:15 Clear 21 -6 14 -10 74 74 SSW 7 11 30.21 1023 10 16 N/A
2:35 am 02:35 Clear 19 -7 14 -10 79 79 S 6 9 30.21 1023 10 16 N/A
2:55 am 02:55 Clear 19 -7 12 -11 73 73 S 6 9 30.21 1023 10 16 N/A
3:15 am 03:15 Clear 18 -8 12 -11 79 79 SSW 6 9 30.21 1023 10 16 N/A
3:35 am 03:35 Clear 19 -7 14 -10 79 79 S 6 9 30.21 1023 10 16 N/A
3:55 am 03:55 Clear 18 -8 14 -10 86 86 S 7 11 30.21 1023 10 16 N/A
4:15 am 04:15 Clear 19 -7 14 -10 79 79 S 6 9 30.21 1023 10 16 N/A
4:35 am 04:35 Clear 19 -7 14 -10 79 79 S 7 11 30.21 1023 10 16 N/A
4:55 am 04:55 Clear 19 -7 14 -10 79 79 S 7 11 30.21 1023 10 16 N/A
5:15 am 05:15 Clear 19 -7 14 -10 79 79 S 8 13 30.21 1023 10 16 N/A
5:35 am 05:35 Clear 19 -7 14 -10 79 79 S 8 13 30.21 1023 10 16 N/A
5:55 am 05:55 Clear 19 -7 14 -10 79 79 S 9 15 30.18 1022 10 16 N/A
6:15 am 06:15 Clear 19 -7 14 -10 79 79 S 8 13 30.18 1022 10 16 N/A
6:35 am 06:35 Clear 19 -7 14 -10 79 79 S 9 15 30.18 1022 10 16 N/A
6:55 am 06:55 Clear 19 -7 14 -10 79 79 SSW 8 13 30.18 1022 10 16 N/A
7:15 am 07:15 Clear 19 -7 14 -10 79 79 SSW 8 13 30.18 1022 10 16 N/A
7:35 am 07:35 Clear 19 -7 14 -10 79 79 SSW 9 15 30.18 1022 10 16 N/A
7:55 am 07:55 Clear 19 -7 14 -10 79 79 SSW 9 15 30.18 1022 10 16 N/A
8:15 am 08:15 Sunny 19 -7 14 -10 79 79 SSW 9 15 30.18 1022 10 16 N/A
8:35 am 08:35 Sunny 19 -7 14 -10 79 79 S 9 15 30.18 1022 10 16 N/A
8:55 am 08:55 Sunny 21 -6 16 -9 80 80 SSW 10 17 30.18 1022 10 16 N/A
9:15 am 09:15 Sunny 23 -5 16 -9 74 74 SSW 12 19 30.18 1022 10 16 N/A
9:35 am 09:35 Sunny 23 -5 16 -9 74 74 SSW 10 17 30.18 1022 10 16 N/A
9:55 am 09:55 Sunny 25 -4 18 -8 74 74 SSW 10 17 30.15 1021 10 16 N/A
10:15 am 10:15 Sunny 27 -3 18 -8 69 69 SSW 13 20 30.15 1021 10 16 N/A
10:35 am 10:35 Sunny 27 -3 19 -7 74 74 SSW 10 17 30.15 1021 10 16 N/A
10:55 am 10:55 Sunny 28 -2 19 -7 69 69 SSW 15 24 30.15 1021 10 16 N/A
11:15 am 11:15 Sunny 30 -1 19 -7 64 64 SSW 12 19 30.15 1021 10 16 N/A
11:35 am 11:35 Sunny 30 -1 19 -7 64 64 SSW 10 17 30.15 1021 10 16 N/A
11:55 am 11:55 Sunny 32 undefined 21 -6 64 64 SSW 12 19 30.15 1021 10 16 N/A
12:15 pm 12:15 Sunny 32 undefined 21 -6 64 64 SSW 13 20 30.12 1020 10 16 N/A
12:35 pm 12:35 Sunny 34 1 21 -6 60 60 SSW 12 19 30.12 1020 10 16 N/A
12:55 pm 12:55 Sunny 34 1 23 -5 65 65 SSW 14 22 30.09 1019 10 16 N/A
1:15 pm 13:15 Sunny 34 1 23 -5 65 65 SSW 12 19 30.09 1019 10 16 N/A
1:35 pm 13:35 Sunny 34 1 23 -5 65 65 S 14 22 30.06 1018 10 16 N/A
1:55 pm 13:55 Sunny 36 2 23 -5 60 60 S 10 17 30.06 1018 10 16 N/A
2:15 pm 14:15 Sunny 36 2 25 -4 65 65 S 13 20 30.06 1018 10 16 N/A
2:35 pm 14:35 Sunny 36 2 25 -4 65 65 S 10 17 30.06 1018 10 16 N/A
2:55 pm 14:55 Sunny 36 2 25 -4 65 65 S 10 17 30.06 1018 10 16 N/A
3:15 pm 15:15 Sunny 36 2 27 -3 70 70 S 8 13 30.06 1018 10 16 N/A
3:35 pm 15:35 Sunny 36 2 27 -3 70 70 S 9 15 30.06 1018 10 16 N/A
3:55 pm 15:55 Sunny 36 2 27 -3 70 70 S 9 15 30.06 1018 10 16 N/A
4:15 pm 16:15 Sunny 36 2 27 -3 70 70 S 10 17 30.03 1017 10 16 N/A
4:35 pm 16:35 Sunny 36 2 27 -3 70 70 S 9 15 30.03 1017 10 16 N/A
4:55 pm 16:55 Sunny 34 1 27 -3 75 75 S 9 15 30.03 1017 10 16 N/A
5:15 pm 17:15 Sunny 34 1 25 -4 70 70 S 9 15 30.03 1017 10 16 N/A
5:35 pm 17:35 Sunny 34 1 25 -4 70 70 S 9 15 30.03 1017 10 16 N/A
5:55 pm 17:55 Clear 32 undefined 25 -4 75 75 S 8 13 30.03 1017 10 16 N/A
6:15 pm 18:15 Clear 32 undefined 25 -4 75 75 S 7 11 30.03 1017 10 16 N/A
6:35 pm 18:35 Clear 32 undefined 25 -4 75 75 S 8 13 30.03 1017 10 16 N/A
6:55 pm 18:55 Clear 32 undefined 25 -4 75 75 S 9 15 30.03 1017 10 16 N/A
7:15 pm 19:15 Clear 32 undefined 27 -3 80 80 S 10 17 30.03 1017 10 16 N/A
7:35 pm 19:35 Clear 34 1 27 -3 75 75 S 10 17 30.03 1017 10 16 N/A
7:55 pm 19:55 Clear 32 undefined 27 -3 80 80 S 12 19 30.03 1017 10 16 N/A
8:15 pm 20:15 Clear 34 1 27 -3 75 75 S 13 20 30.03 1017 10 16 N/A
8:35 pm 20:35 Clear 34 1 28 -2 81 81 SSW 12 19 30.03 1017 10 16 N/A
8:55 pm 20:55 Clear 34 1 27 -3 75 75 SSW 15 24 30.03 1017 10 16 N/A
9:15 pm 21:15 Clear 34 1 27 -3 75 75 SSW 15 24 30.03 1017 10 16 N/A
9:35 pm 21:35 Clear 34 1 27 -3 75 75 SSW 12 19 30.03 1017 10 16 N/A
9:55 pm 21:55 Clear 34 1 25 -4 70 70 SSW 14 22 30.03 1017 10 16 N/A
10:15 pm 22:15 Clear 34 1 25 -4 70 70 SSW 15 24 30.00 1016 10 16 N/A
10:35 pm 22:35 Clear 34 1 27 -3 75 75 SSW 15 24 30.03 1017 10 16 N/A
10:55 pm 22:55 Clear 34 1 27 -3 75 75 SSW 13 20 30.03 1017 10 16 N/A
11:15 pm 23:15 Clear 34 1 27 -3 75 75 SSW 13 20 30.03 1017 10 16 N/A
11:35 pm 23:35 Clear 34 1 27 -3 75 75 SSW 10 17 30.03 1017 10 16 N/A
11:55 pm 23:55 Clear 34 1 27 -3 75 75 SSW 13 20 30.03 1017 10 16 N/A

Powered by AerisWeather